Hourly Data Report for October 28, 2016

All times are specified in Local Standard Time (LST). Add 1 hour to adjust for Daylight Saving Time where and when it is observed.

BATHURST A
NEW BRUNSWICK

47°37'47.000" N
65°44'20.000" W
58.80 m
8100505
71574
ZBF

Download Data

Hourly Data (October 2016)
Hourly Data Report for October 28, 2016
Temp Definition
°C
Dew Point Temp Definition
°C
Rel Hum Definition
%
Wind Dir Definition
10's deg

Wind Spd Definition
km/h
Visibility Definition
km
Stn Press Definition
kPa
Hmdx Definition


Wind Chill Definition


Weather Definition


TIME
00:00 Legend Double Dagger -2.3 -2.9 96 24 5 24.1 102.65   -4 LegendNANA
01:00 Legend Double Dagger -2.7 -3.1 97 36 1 24.1 102.59   -3 LegendNANA
02:00 Legend Double Dagger -4.1 -4.6 96 22 5 24.1 102.58   -6 Clear
03:00 Legend Double Dagger -3.5 -3.9 97 36 1 24.1 102.51   -4 LegendNANA
04:00 Legend Double Dagger -4.3 -4.8 96 25 5 24.1 102.49   -6 LegendNANA
05:00 Legend Double Dagger -3.9 -4.6 95 36 2 24.1 102.42   -5 Cloudy
06:00 Legend Double Dagger -2.7 -3.3 96 23 5 24.1 102.41   -5 LegendNANA
07:00 Legend Double Dagger -2.1 -2.7 96 23 6 24.1 102.44   -4 LegendNANA
08:00 Legend Double Dagger -1.5 -2.3 94 24 3 24.1 102.46   -3 Mostly Cloudy
09:00 Legend Double Dagger -0.5 -1.5 93 36 1 24.1 102.42   -1 LegendNANA
10:00 Legend Double Dagger 1.5 -0.1 89 10 10 24.1 102.39     LegendNANA
11:00 Legend Double Dagger 3.1 0.5 83 13 11 24.1 102.34     Mostly Cloudy
12:00 Legend Double Dagger 4.7 -0.9 67 10 16 24.1 102.23     LegendNANA
13:00 Legend Double Dagger 5.2 -0.4 67 9 14 24.1 102.12     Rain Showers
14:00 Legend Double Dagger 5.5 -1.6 60 11 13 24.1 102.03     Mostly Cloudy
15:00 Legend Double Dagger 5.3 -0.3 67 10 19 24.1 101.96     LegendNANA
16:00 Legend Double Dagger 4.8 0.8 75 8 11 24.1 101.93     LegendNANA
17:00 Legend Double Dagger 3.9 1.6 85 10 15 12.9 101.89     Rain Showers
18:00 Legend Double Dagger 3.4 2.4 93 6 6 19.3 101.83     Rain Showers
19:00 Legend Double Dagger 3.1 2.4 95 4 6 16.1 101.78     LegendNANA
20:00 Legend Double Dagger 2.4 1.8 96 2 7 16.1 101.70     Mainly Clear
21:00 Legend Double Dagger 1.7 1.3 97 5 4 24.1 101.68     LegendNANA
22:00 Legend Double Dagger 1.8 0.9 94 3 5 24.1 101.64     LegendNANA
23:00 Legend Double Dagger -0.2 -0.6 97 33 5 24.1 101.57   -2 Mainly Clear

Notes on Data Quality.

Legend

  • E = Estimated
  • M = Missing
  • NA = Not Available
  • ‡ = Partner data that is not subject to review by the National Climate Archives
Date modified: